Time,TemperatureF,DewpointF,PressureIn,WindDirection,WindDirectionDegrees,WindSpeedMPH,WindSpeedGustMPH,Humidity,HourlyPrecipIn,Conditions,Clouds,dailyrainin,SoftwareType,DateUTC
2013-05-07 00:00:00,62.9,50.1,29.98,SSW,194,0.0,0.0,63,0.00,,,0.00,VWS V15.00,2013-05-07 05:00:00,
2013-05-07 00:02:00,61.2,50.6,29.98,SSW,194,0.0,0.0,68,0.00,,,0.00,VWS V13.01,2013-05-07 05:02:00,
2013-05-07 00:07:00,61.1,50.5,29.98,SSW,194,0.0,0.0,68,0.00,,,0.00,VWS V13.01,2013-05-07 05:07:00,
2013-05-07 00:10:00,62.4,50.1,29.98,SSW,194,0.0,0.0,64,0.00,,,0.00,VWS V15.00,2013-05-07 05:10:00,
2013-05-07 00:12:00,60.9,50.3,29.98,SSW,194,0.0,0.0,68,0.00,,,0.00,VWS V13.01,2013-05-07 05:12:00,
2013-05-07 00:17:00,60.8,51.0,29.98,SSW,194,0.0,0.0,70,0.00,,,0.00,VWS V13.01,2013-05-07 05:17:00,
2013-05-07 00:20:00,62.1,50.2,29.97,SSW,194,0.0,0.0,65,0.00,,,0.00,VWS V15.00,2013-05-07 05:20:00,
2013-05-07 00:22:00,60.6,51.2,29.98,SSW,194,0.0,0.0,71,0.00,,,0.00,VWS V13.01,2013-05-07 05:22:00,
2013-05-07 00:27:00,60.5,51.4,29.98,SSW,194,0.0,0.0,72,0.00,,,0.00,VWS V13.01,2013-05-07 05:27:00,
2013-05-07 00:30:00,61.8,50.3,29.98,SSW,194,0.0,0.0,66,0.00,,,0.00,VWS V15.00,2013-05-07 05:30:00,
2013-05-07 00:32:00,60.4,51.3,29.98,SSW,194,0.0,0.0,72,0.00,,,0.00,VWS V13.01,2013-05-07 05:32:00,
2013-05-07 00:37:00,60.2,50.8,29.98,SSW,194,0.0,0.0,71,0.00,,,0.00,VWS V13.01,2013-05-07 05:37:00,
2013-05-07 00:40:00,61.6,50.5,29.98,SSW,194,0.0,0.0,67,0.00,,,0.00,VWS V15.00,2013-05-07 05:40:00,
2013-05-07 00:42:00,60.0,50.6,29.98,SSW,194,0.0,0.0,71,0.00,,,0.00,VWS V13.01,2013-05-07 05:42:00,
2013-05-07 00:47:00,59.8,50.8,29.99,SSW,194,0.0,0.0,72,0.00,,,0.00,VWS V13.01,2013-05-07 05:47:00,
2013-05-07 00:50:00,61.4,50.8,29.98,SSW,194,0.0,0.0,68,0.00,,,0.00,VWS V15.00,2013-05-07 05:50:00,
2013-05-07 00:52:00,59.6,50.6,29.99,SSW,194,0.0,0.0,72,0.00,,,0.00,VWS V13.01,2013-05-07 05:52:00,
2013-05-07 00:57:00,59.3,50.7,29.99,SSW,194,0.0,0.0,73,0.00,,,0.00,VWS V13.01,2013-05-07 05:57:00,
2013-05-07 01:00:00,61.2,50.6,29.98,SSW,194,0.0,0.0,68,0.00,,,0.00,VWS V15.00,2013-05-07 06:00:00,
2013-05-07 01:02:00,59.0,50.4,29.99,SSW,194,0.0,0.0,73,0.00,,,0.00,VWS V13.01,2013-05-07 06:02:00,
2013-05-07 01:07:00,59.0,50.7,29.99,SSW,194,0.0,0.0,74,0.00,,,0.00,VWS V13.01,2013-05-07 06:07:00,
2013-05-07 01:10:00,60.9,50.3,29.98,SSW,194,0.0,0.0,68,0.00,,,0.00,VWS V15.00,2013-05-07 06:10:00,
2013-05-07 01:12:00,59.0,50.7,29.99,SSW,194,0.0,0.0,74,0.00,,,0.00,VWS V13.01,2013-05-07 06:12:00,
2013-05-07 01:17:00,58.8,50.9,29.99,SSW,194,0.0,0.0,75,0.00,,,0.00,VWS V13.01,2013-05-07 06:17:00,
2013-05-07 01:20:00,60.7,51.2,29.98,SSW,194,0.0,0.0,71,0.00,,,0.00,VWS V15.00,2013-05-07 06:20:00,
2013-05-07 01:22:00,58.5,50.6,29.99,SSW,194,0.0,0.0,75,0.00,,,0.00,VWS V13.01,2013-05-07 06:22:00,
2013-05-07 01:27:00,58.3,50.8,29.99,SSW,194,0.0,0.0,76,0.00,,,0.00,VWS V13.01,2013-05-07 06:27:00,
2013-05-07 01:30:00,60.4,51.3,29.98,SSW,194,0.0,0.0,72,0.00,,,0.00,VWS V15.00,2013-05-07 06:30:00,
2013-05-07 01:32:00,58.1,50.9,29.99,SSW,194,0.0,0.0,77,0.00,,,0.00,VWS V13.01,2013-05-07 06:32:00,
2013-05-07 01:37:00,58.0,50.8,29.99,SSW,194,0.0,0.0,77,0.00,,,0.00,VWS V13.01,2013-05-07 06:37:00,
2013-05-07 01:40:00,60.1,50.7,29.98,SSW,194,0.0,0.0,71,0.00,,,0.00,VWS V15.00,2013-05-07 06:40:00,
2013-05-07 01:42:00,57.8,50.7,29.99,SSW,194,0.0,0.0,77,0.00,,,0.00,VWS V13.01,2013-05-07 06:42:00,
2013-05-07 01:47:00,57.5,50.4,29.99,SSW,194,0.0,0.0,77,0.00,,,0.00,VWS V13.01,2013-05-07 06:47:00,
2013-05-07 01:50:00,59.6,50.6,29.99,SSW,194,0.0,0.0,72,0.00,,,0.00,VWS V15.00,2013-05-07 06:50:00,
2013-05-07 01:52:00,57.2,50.1,29.99,SSW,194,0.0,0.0,77,0.00,,,0.00,VWS V13.01,2013-05-07 06:52:00,
2013-05-07 01:57:00,57.1,50.0,29.99,SSW,194,0.0,0.0,77,0.00,,,0.00,VWS V13.01,2013-05-07 06:57:00,
2013-05-07 02:00:00,59.1,50.5,29.99,SSW,194,0.0,0.0,73,0.00,,,0.00,VWS V15.00,2013-05-07 07:00:00,
2013-05-07 02:02:00,56.7,49.6,29.98,SSW,194,0.0,0.0,77,0.00,,,0.00,VWS V13.01,2013-05-07 07:02:00,
2013-05-07 02:07:00,56.3,49.2,29.98,SSW,194,0.0,0.0,77,0.00,,,0.00,VWS V13.01,2013-05-07 07:07:00,
2013-05-07 02:10:00,59.0,50.7,29.99,SSW,194,0.0,0.0,74,0.00,,,0.00,VWS V15.00,2013-05-07 07:10:00,
2013-05-07 02:12:00,56.0,48.9,29.98,SSW,194,0.0,0.0,77,0.00,,,0.00,VWS V13.01,2013-05-07 07:12:00,
2013-05-07 02:17:00,55.8,49.0,29.98,SSW,194,0.0,0.0,78,0.00,,,0.00,VWS V13.01,2013-05-07 07:17:00,
2013-05-07 02:20:00,58.6,50.7,29.99,SSW,194,0.0,0.0,75,0.00,,,0.00,VWS V15.00,2013-05-07 07:20:00,
2013-05-07 02:22:00,55.6,48.5,29.98,SSW,194,0.0,0.0,77,0.00,,,0.00,VWS V13.01,2013-05-07 07:22:00,
2013-05-07 02:27:00,55.5,48.8,29.98,SSW,194,0.0,0.0,78,0.00,,,0.00,VWS V13.01,2013-05-07 07:27:00,
2013-05-07 02:30:00,58.1,50.6,29.99,SSW,194,0.0,0.0,76,0.00,,,0.00,VWS V15.00,2013-05-07 07:30:00,
2013-05-07 02:32:00,55.3,48.6,29.97,SSW,194,0.0,0.0,78,0.00,,,0.00,VWS V13.01,2013-05-07 07:32:00,
2013-05-07 02:37:00,55.2,48.5,29.97,SSW,194,0.0,0.0,78,0.00,,,0.00,VWS V13.01,2013-05-07 07:37:00,
2013-05-07 02:40:00,57.9,50.7,29.99,SSW,194,0.0,0.0,77,0.00,,,0.00,VWS V15.00,2013-05-07 07:40:00,
2013-05-07 02:42:00,55.1,48.7,29.97,SSW,194,0.0,0.0,79,0.00,,,0.00,VWS V13.01,2013-05-07 07:42:00,
2013-05-07 02:47:00,55.0,48.3,29.97,SSW,194,0.0,0.0,78,0.00,,,0.00,VWS V13.01,2013-05-07 07:47:00,
2013-05-07 02:50:00,57.3,50.2,29.99,SSW,194,0.0,0.0,77,0.00,,,0.00,VWS V15.00,2013-05-07 07:50:00,
2013-05-07 02:52:00,55.0,48.6,29.97,SSW,194,0.0,0.0,79,0.00,,,0.00,VWS V13.01,2013-05-07 07:52:00,
2013-05-07 02:57:00,54.9,48.5,29.97,SSW,194,0.0,0.0,79,0.00,,,0.00,VWS V13.01,2013-05-07 07:57:00,
2013-05-07 03:00:00,56.7,49.6,29.98,SSW,194,0.0,0.0,77,0.00,,,0.00,VWS V15.00,2013-05-07 08:00:00,
2013-05-07 03:02:00,54.9,48.5,29.97,SSW,194,0.0,0.0,79,0.00,,,0.00,VWS V13.01,2013-05-07 08:02:00,
2013-05-07 03:07:00,54.8,48.4,29.97,SSW,194,0.0,0.0,79,0.00,,,0.00,VWS V13.01,2013-05-07 08:07:00,
2013-05-07 03:10:00,56.1,49.0,29.98,SSW,194,0.0,0.0,77,0.00,,,0.00,VWS V15.00,2013-05-07 08:10:00,
2013-05-07 03:12:00,54.8,48.4,29.97,SSW,194,0.0,0.0,79,0.00,,,0.00,VWS V13.01,2013-05-07 08:12:00,
2013-05-07 03:17:00,54.7,48.3,29.97,SSW,194,0.0,0.0,79,0.00,,,0.00,VWS V13.01,2013-05-07 08:17:00,
2013-05-07 03:20:00,55.7,49.0,29.98,SSW,194,0.0,0.0,78,0.00,,,0.00,VWS V15.00,2013-05-07 08:20:00,
2013-05-07 03:22:00,54.6,48.2,29.97,SSW,194,0.0,0.0,79,0.00,,,0.00,VWS V13.01,2013-05-07 08:22:00,
2013-05-07 03:27:00,54.5,48.1,29.97,SSW,194,0.0,0.0,79,0.00,,,0.00,VWS V13.01,2013-05-07 08:27:00,
2013-05-07 03:30:00,55.3,48.6,29.97,SSW,194,0.0,0.0,78,0.00,,,0.00,VWS V15.00,2013-05-07 08:30:00,
2013-05-07 03:32:00,54.4,48.0,29.97,SSW,194,0.0,0.0,79,0.00,,,0.00,VWS V13.01,2013-05-07 08:32:00,
2013-05-07 03:37:00,54.2,47.8,29.97,SSW,194,0.0,0.0,79,0.00,,,0.00,VWS V13.01,2013-05-07 08:37:00,
2013-05-07 03:40:00,55.1,48.7,29.97,SSW,194,0.0,0.0,79,0.00,,,0.00,VWS V15.00,2013-05-07 08:40:00,
2013-05-07 03:42:00,54.1,47.7,29.97,SSW,194,0.0,0.0,79,0.00,,,0.00,VWS V13.01,2013-05-07 08:42:00,
2013-05-07 03:47:00,54.0,47.6,29.97,SSW,194,0.0,0.0,79,0.00,,,0.00,VWS V13.01,2013-05-07 08:47:00,
2013-05-07 03:52:00,53.9,47.9,29.97,SSW,194,0.0,0.0,80,0.00,,,0.00,VWS V13.01,2013-05-07 08:52:00,
2013-05-07 03:57:00,53.8,47.8,29.97,SSW,194,0.0,0.0,80,0.00,,,0.00,VWS V13.01,2013-05-07 08:57:00,
2013-05-07 04:00:00,54.9,48.5,29.97,SSW,194,0.0,0.0,79,0.00,,,0.00,VWS V15.00,2013-05-07 09:00:00,
2013-05-07 04:02:00,53.7,47.7,29.97,SSW,194,0.0,0.0,80,0.00,,,0.00,VWS V13.01,2013-05-07 09:02:00,
2013-05-07 04:07:00,53.6,47.6,29.97,SSW,194,0.0,0.0,80,0.00,,,0.00,VWS V13.01,2013-05-07 09:07:00,
2013-05-07 04:10:00,54.8,48.4,29.97,SSW,194,0.0,0.0,79,0.00,,,0.00,VWS V15.00,2013-05-07 09:10:00,
2013-05-07 04:12:00,53.5,47.5,29.97,SSW,194,0.0,0.0,80,0.00,,,0.00,VWS V13.01,2013-05-07 09:12:00,
2013-05-07 04:17:00,53.4,47.4,29.96,SSW,194,0.0,0.0,80,0.00,,,0.00,VWS V13.01,2013-05-07 09:17:00,
2013-05-07 04:20:00,54.6,48.2,29.97,SSW,194,0.0,0.0,79,0.00,,,0.00,VWS V15.00,2013-05-07 09:20:00,
2013-05-07 04:22:00,53.3,47.6,29.96,SSW,194,0.0,0.0,81,0.00,,,0.00,VWS V13.01,2013-05-07 09:22:00,
2013-05-07 04:27:00,53.3,47.6,29.96,SSW,194,0.0,0.0,81,0.00,,,0.00,VWS V13.01,2013-05-07 09:27:00,
2013-05-07 04:30:00,54.4,48.0,29.97,SSW,194,0.0,0.0,79,0.00,,,0.00,VWS V15.00,2013-05-07 09:30:00,
2013-05-07 04:32:00,53.3,48.0,29.97,SSW,194,0.0,0.0,82,0.00,,,0.00,VWS V13.01,2013-05-07 09:32:00,
2013-05-07 04:37:00,53.1,47.8,29.97,SSW,194,0.0,0.0,82,0.00,,,0.00,VWS V13.01,2013-05-07 09:37:00,
2013-05-07 04:40:00,54.1,47.7,29.97,SSW,194,0.0,0.0,79,0.00,,,0.00,VWS V15.00,2013-05-07 09:40:00,
2013-05-07 04:42:00,52.9,47.6,29.97,SSW,194,0.0,0.0,82,0.00,,,0.00,VWS V13.01,2013-05-07 09:42:00,
2013-05-07 04:47:00,52.8,47.8,29.97,SSW,194,0.0,0.0,83,0.00,,,0.00,VWS V13.01,2013-05-07 09:47:00,
2013-05-07 04:50:00,53.9,47.9,29.97,SSW,194,0.0,0.0,80,0.00,,,0.00,VWS V15.00,2013-05-07 09:50:00,
2013-05-07 04:52:00,52.7,47.7,29.97,SSW,194,0.0,0.0,83,0.00,,,0.00,VWS V13.01,2013-05-07 09:52:00,
2013-05-07 04:57:00,52.6,47.6,29.97,SSW,194,0.0,0.0,83,0.00,,,0.00,VWS V13.01,2013-05-07 09:57:00,
2013-05-07 05:00:00,53.8,47.8,29.97,SSW,194,0.0,0.0,80,0.00,,,0.00,VWS V15.00,2013-05-07 10:00:00,
2013-05-07 05:02:00,52.5,47.5,29.97,SSW,194,0.0,0.0,83,0.00,,,0.00,VWS V13.01,2013-05-07 10:02:00,
2013-05-07 05:07:00,52.4,47.7,29.97,SSW,194,0.0,0.0,84,0.00,,,0.00,VWS V13.01,2013-05-07 10:07:00,
2013-05-07 05:10:00,53.5,47.5,29.97,SSW,194,0.0,0.0,80,0.00,,,0.00,VWS V15.00,2013-05-07 10:10:00,
2013-05-07 05:12:00,52.3,47.6,29.97,SSW,194,0.0,0.0,84,0.00,,,0.00,VWS V13.01,2013-05-07 10:12:00,
2013-05-07 05:17:00,52.2,47.5,29.97,SSW,194,0.0,0.0,84,0.00,,,0.00,VWS V13.01,2013-05-07 10:17:00,
2013-05-07 05:20:00,53.3,47.6,29.96,SSW,194,0.0,0.0,81,0.00,,,0.00,VWS V15.00,2013-05-07 10:20:00,
2013-05-07 05:22:00,52.0,47.0,29.97,SSW,194,0.0,0.0,83,0.00,,,0.00,VWS V13.01,2013-05-07 10:22:00,
2013-05-07 05:27:00,51.7,46.7,29.97,SSW,194,0.0,0.0,83,0.00,,,0.00,VWS V13.01,2013-05-07 10:27:00,
2013-05-07 05:30:00,53.2,47.9,29.97,SSW,194,0.0,0.0,82,0.00,,,0.00,VWS V15.00,2013-05-07 10:30:00,
2013-05-07 05:32:00,51.6,46.9,29.98,SSW,194,0.0,0.0,84,0.00,,,0.00,VWS V13.01,2013-05-07 10:32:00,
2013-05-07 05:37:00,51.4,46.4,29.98,SSW,194,0.0,0.0,83,0.00,,,0.00,VWS V13.01,2013-05-07 10:37:00,
2013-05-07 05:40:00,53.0,47.7,29.97,SSW,194,0.0,0.0,82,0.00,,,0.00,VWS V15.00,2013-05-07 10:40:00,
2013-05-07 05:42:00,51.0,46.0,29.98,SSW,194,0.0,0.0,83,0.00,,,0.00,VWS V13.01,2013-05-07 10:42:00,
2013-05-07 05:47:00,50.7,46.0,29.99,SSW,194,0.0,0.0,84,0.00,,,0.00,VWS V13.01,2013-05-07 10:47:00,
2013-05-07 05:50:00,52.7,47.7,29.97,SSW,194,0.0,0.0,83,0.00,,,0.00,VWS V15.00,2013-05-07 10:50:00,
2013-05-07 05:52:00,50.4,45.8,29.99,SSW,194,0.0,0.0,84,0.00,,,0.00,VWS V13.01,2013-05-07 10:52:00,
2013-05-07 05:57:00,50.2,45.6,29.99,SSW,194,0.0,0.0,84,0.00,,,0.00,VWS V13.01,2013-05-07 10:57:00,
2013-05-07 06:00:00,52.5,47.5,29.97,SSW,194,0.0,0.0,83,0.00,,,0.00,VWS V15.00,2013-05-07 11:00:00,
2013-05-07 06:02:00,50.2,45.9,29.99,SSW,194,0.0,0.0,85,0.00,,,0.00,VWS V13.01,2013-05-07 11:02:00,
2013-05-07 06:07:00,50.1,45.8,29.99,SSW,194,0.0,0.0,85,0.00,,,0.00,VWS V13.01,2013-05-07 11:07:00,
2013-05-07 06:10:00,52.3,47.6,29.97,SSW,194,0.0,0.0,84,0.00,,,0.00,VWS V15.00,2013-05-07 11:10:00,
2013-05-07 06:12:00,50.0,45.7,29.99,SSW,194,0.0,0.0,85,0.00,,,0.00,VWS V13.01,2013-05-07 11:12:00,
2013-05-07 06:17:00,49.9,45.6,29.99,SSW,194,0.0,0.0,85,0.00,,,0.00,VWS V13.01,2013-05-07 11:17:00,
2013-05-07 06:20:00,52.0,47.0,29.97,SSW,194,0.0,0.0,83,0.00,,,0.00,VWS V15.00,2013-05-07 11:20:00,
2013-05-07 06:22:00,49.8,45.5,29.99,SSW,194,0.0,0.0,85,0.00,,,0.00,VWS V13.01,2013-05-07 11:22:00,
2013-05-07 06:27:00,49.7,45.7,29.99,SSW,194,0.0,0.0,86,0.00,,,0.00,VWS V13.01,2013-05-07 11:27:00,
2013-05-07 06:30:00,51.6,46.9,29.98,SSW,194,0.0,0.0,84,0.00,,,0.00,VWS V15.00,2013-05-07 11:30:00,
2013-05-07 06:32:00,49.7,45.7,30.00,SSW,194,0.0,0.0,86,0.00,,,0.00,VWS V13.01,2013-05-07 11:32:00,
2013-05-07 06:37:00,49.7,45.7,30.00,SSW,194,0.0,0.0,86,0.00,,,0.00,VWS V13.01,2013-05-07 11:37:00,
2013-05-07 06:40:00,51.1,46.1,29.98,SSW,194,0.0,0.0,83,0.00,,,0.00,VWS V15.00,2013-05-07 11:40:00,
2013-05-07 06:42:00,49.8,45.8,30.00,SSW,194,0.0,0.0,86,0.00,,,0.00,VWS V13.01,2013-05-07 11:42:00,
2013-05-07 06:47:00,49.9,46.2,30.00,SSW,194,0.0,0.0,87,0.00,,,0.00,VWS V13.01,2013-05-07 11:47:00,
2013-05-07 06:50:00,50.5,45.5,29.99,SSW,194,0.0,0.0,83,0.00,,,0.00,VWS V15.00,2013-05-07 11:50:00,
2013-05-07 06:52:00,50.0,46.3,30.00,SSW,194,0.0,0.0,87,0.00,,,0.00,VWS V13.01,2013-05-07 11:52:00,
2013-05-07 06:57:00,49.8,45.8,30.00,SSW,194,0.0,0.0,86,0.00,,,0.00,VWS V13.01,2013-05-07 11:57:00,
2013-05-07 07:00:00,50.2,45.9,29.99,SSW,194,0.0,0.0,85,0.00,,,0.00,VWS V15.00,2013-05-07 12:00:00,
2013-05-07 07:02:00,49.8,46.1,30.00,SSW,194,0.0,0.0,87,0.00,,,0.00,VWS V13.01,2013-05-07 12:02:00,
2013-05-07 07:07:00,49.9,46.2,30.00,SSW,194,0.0,0.0,87,0.00,,,0.00,VWS V13.01,2013-05-07 12:07:00,
2013-05-07 07:10:00,50.0,45.7,29.99,SSW,194,0.0,0.0,85,0.00,,,0.00,VWS V15.00,2013-05-07 12:10:00,
2013-05-07 07:12:00,49.8,46.1,30.00,SSW,194,0.0,0.0,87,0.00,,,0.00,VWS V13.01,2013-05-07 12:12:00,
2013-05-07 07:17:00,49.8,46.1,30.01,SSW,194,0.0,0.0,87,0.00,,,0.00,VWS V13.01,2013-05-07 12:17:00,
2013-05-07 07:20:00,49.9,45.6,29.99,SSW,194,0.0,0.0,85,0.00,,,0.00,VWS V15.00,2013-05-07 12:20:00,
2013-05-07 07:22:00,49.8,46.1,30.01,SSW,194,0.0,0.0,87,0.00,,,0.00,VWS V13.01,2013-05-07 12:22:00,
2013-05-07 07:27:00,49.9,46.2,30.01,SSW,194,0.0,0.0,87,0.00,,,0.00,VWS V13.01,2013-05-07 12:27:00,
2013-05-07 07:30:00,49.7,45.7,30.00,SSW,194,0.0,0.0,86,0.00,,,0.00,VWS V15.00,2013-05-07 12:30:00,
2013-05-07 07:32:00,50.1,46.4,30.00,SSW,194,0.0,0.0,87,0.00,,,0.00,VWS V13.01,2013-05-07 12:32:00,
2013-05-07 07:37:00,50.2,46.5,30.00,SSW,194,0.0,0.0,87,0.00,,,0.00,VWS V13.01,2013-05-07 12:37:00,
2013-05-07 07:40:00,49.7,45.7,30.00,SSW,194,0.0,0.0,86,0.00,,,0.00,VWS V15.00,2013-05-07 12:40:00,
2013-05-07 07:42:00,50.3,46.6,30.00,SSW,194,0.0,0.0,87,0.00,,,0.00,VWS V13.01,2013-05-07 12:42:00,
2013-05-07 07:47:00,50.5,46.8,30.01,SSW,194,0.0,0.0,87,0.00,,,0.00,VWS V13.01,2013-05-07 12:47:00,
2013-05-07 07:50:00,50.0,46.3,30.00,SSW,194,0.0,0.0,87,0.00,,,0.00,VWS V15.00,2013-05-07 12:50:00,
2013-05-07 07:52:00,50.8,47.4,30.01,SSW,194,0.0,0.0,88,0.00,,,0.00,VWS V13.01,2013-05-07 12:52:00,
2013-05-07 07:57:00,51.4,48.0,30.01,SSW,194,0.0,0.0,88,0.00,,,0.00,VWS V13.01,2013-05-07 12:57:00,
2013-05-07 08:00:00,49.8,46.1,30.00,SSW,194,0.0,0.0,87,0.00,,,0.00,VWS V15.00,2013-05-07 13:00:00,
2013-05-07 08:02:00,51.9,48.5,30.02,SSW,194,0.0,0.0,88,0.00,,,0.00,VWS V13.01,2013-05-07 13:02:00,
2013-05-07 08:07:00,52.3,48.9,30.02,SSW,194,0.0,0.0,88,0.00,,,0.00,VWS V13.01,2013-05-07 13:07:00,
2013-05-07 08:10:00,49.8,46.1,30.00,SSW,194,0.0,0.0,87,0.00,,,0.00,VWS V15.00,2013-05-07 13:10:00,
2013-05-07 08:12:00,52.8,49.3,30.02,SSW,194,0.0,0.0,88,0.00,,,0.00,VWS V13.01,2013-05-07 13:12:00,
2013-05-07 08:17:00,53.3,49.5,30.02,SSW,196,0.0,0.0,87,0.00,,,0.00,VWS V13.01,2013-05-07 13:17:00,
2013-05-07 08:20:00,49.8,46.1,30.01,SSW,194,0.0,0.0,87,0.00,,,0.00,VWS V15.00,2013-05-07 13:20:00,
2013-05-07 08:22:00,53.8,50.0,30.02,SW,227,0.0,0.0,87,0.00,,,0.00,VWS V13.01,2013-05-07 13:22:00,
2013-05-07 08:27:00,54.4,50.3,30.02,SW,228,0.0,0.0,86,0.00,,,0.00,VWS V13.01,2013-05-07 13:27:00,
2013-05-07 08:30:00,50.1,46.4,30.00,SSW,194,0.0,0.0,87,0.00,,,0.00,VWS V15.00,2013-05-07 13:30:00,
2013-05-07 08:32:00,54.9,50.5,30.02,SW,228,0.0,0.0,85,0.00,,,0.00,VWS V13.01,2013-05-07 13:32:00,
2013-05-07 08:37:00,55.6,50.8,30.02,SW,227,0.0,0.0,84,0.00,,,0.00,VWS V13.01,2013-05-07 13:37:00,
2013-05-07 08:40:00,50.3,46.6,30.00,SSW,194,0.0,0.0,87,0.00,,,0.00,VWS V15.00,2013-05-07 13:40:00,
2013-05-07 08:42:00,56.2,51.1,30.02,SW,227,0.0,0.0,83,0.00,,,0.00,VWS V13.01,2013-05-07 13:42:00,
2013-05-07 08:47:00,57.0,51.6,30.02,SW,228,0.0,0.0,82,0.00,,,0.00,VWS V13.01,2013-05-07 13:47:00,
2013-05-07 08:50:00,50.7,47.0,30.01,SSW,194,0.0,0.0,87,0.00,,,0.00,VWS V15.00,2013-05-07 13:50:00,
2013-05-07 08:52:00,57.7,51.6,30.02,SW,228,0.0,0.0,80,0.00,,,0.00,VWS V13.01,2013-05-07 13:52:00,
2013-05-07 08:57:00,58.6,51.8,30.02,SW,227,0.0,0.0,78,0.00,,,0.00,VWS V13.01,2013-05-07 13:57:00,
2013-05-07 09:00:00,51.8,48.4,30.02,SSW,194,0.0,0.0,88,0.00,,,0.00,VWS V15.00,2013-05-07 14:00:00,
2013-05-07 09:02:00,59.4,51.8,30.02,SW,228,0.0,0.0,76,0.00,,,0.00,VWS V13.01,2013-05-07 14:02:00,
2013-05-07 09:07:00,60.3,52.0,30.02,SW,228,0.0,0.0,74,0.00,,,0.00,VWS V13.01,2013-05-07 14:07:00,
2013-05-07 09:10:00,52.7,49.2,30.02,SSW,194,0.0,0.0,88,0.00,,,0.00,VWS V15.00,2013-05-07 14:10:00,
2013-05-07 09:12:00,61.1,52.4,30.02,SW,228,0.0,0.0,73,0.00,,,0.00,VWS V13.01,2013-05-07 14:12:00,
2013-05-07 09:17:00,62.1,53.0,30.02,SW,228,0.0,0.0,72,0.00,,,0.00,VWS V13.01,2013-05-07 14:17:00,
2013-05-07 09:20:00,53.7,49.9,30.02,SW,228,0.0,0.0,87,0.00,,,0.00,VWS V15.00,2013-05-07 14:20:00,
2013-05-07 09:22:00,63.1,52.8,30.02,SW,227,0.0,0.0,69,0.00,,,0.00,VWS V13.01,2013-05-07 14:22:00,
2013-05-07 09:27:00,64.1,53.7,30.02,SW,228,0.0,0.0,69,0.00,,,0.00,VWS V13.01,2013-05-07 14:27:00,
2013-05-07 09:30:00,54.8,50.4,30.02,SW,227,0.0,0.0,85,0.00,,,0.00,VWS V15.00,2013-05-07 14:30:00,
2013-05-07 09:32:00,64.7,53.1,30.02,SW,228,0.0,0.0,66,0.00,,,0.00,VWS V13.01,2013-05-07 14:32:00,
2013-05-07 09:37:00,65.4,53.8,30.02,SW,228,0.0,0.0,66,0.00,,,0.00,VWS V13.01,2013-05-07 14:37:00,
2013-05-07 09:40:00,56.1,51.0,30.02,SW,228,0.0,0.0,83,0.00,,,0.00,VWS V15.00,2013-05-07 14:40:00,
2013-05-07 09:42:00,66.3,53.8,30.02,SW,227,0.0,0.0,64,0.00,,,0.00,VWS V13.01,2013-05-07 14:42:00,
2013-05-07 09:47:00,67.5,55.3,30.02,SW,227,0.0,0.0,65,0.00,,,0.00,VWS V13.01,2013-05-07 14:47:00,
2013-05-07 09:50:00,57.6,51.8,30.02,SW,227,0.0,0.0,81,0.00,,,0.00,VWS V15.00,2013-05-07 14:50:00,
2013-05-07 09:52:00,68.3,54.8,30.02,SW,228,0.0,0.0,62,0.00,,,0.00,VWS V13.01,2013-05-07 14:52:00,
2013-05-07 09:57:00,68.9,54.9,30.02,SW,228,0.0,0.0,61,0.00,,,0.00,VWS V13.01,2013-05-07 14:57:00,
2013-05-07 10:00:00,59.0,51.8,30.02,SW,228,0.0,0.0,77,0.00,,,0.00,VWS V15.00,2013-05-07 15:00:00,
2013-05-07 10:02:00,69.5,55.0,30.02,SW,228,0.0,0.0,60,0.00,,,0.00,VWS V13.01,2013-05-07 15:02:00,
2013-05-07 10:07:00,70.0,55.0,30.02,SW,227,0.0,0.0,59,0.00,,,0.00,VWS V13.01,2013-05-07 15:07:00,
2013-05-07 10:10:00,60.9,52.2,30.02,SW,228,0.0,0.0,73,0.00,,,0.00,VWS V15.00,2013-05-07 15:10:00,
2013-05-07 10:12:00,70.8,54.8,30.02,SW,228,0.0,0.0,57,0.00,,,0.00,VWS V13.01,2013-05-07 15:12:00,
2013-05-07 10:17:00,71.3,55.3,30.02,SW,227,3.0,3.0,57,0.00,,,0.00,VWS V13.01,2013-05-07 15:17:00,
2013-05-07 10:20:00,62.9,52.6,30.02,SW,228,0.0,0.0,69,0.00,,,0.00,VWS V15.00,2013-05-07 15:20:00,
2013-05-07 10:22:00,71.8,55.3,30.02,SW,227,2.0,3.0,56,0.00,,,0.00,VWS V13.01,2013-05-07 15:22:00,
2013-05-07 10:27:00,71.8,55.3,30.02,SW,228,1.0,6.0,56,0.00,,,0.00,VWS V13.01,2013-05-07 15:27:00,
2013-05-07 10:30:00,64.6,53.4,30.02,SW,227,0.0,0.0,67,0.00,,,0.00,VWS V15.00,2013-05-07 15:30:00,
2013-05-07 10:32:00,72.2,55.7,30.02,SW,228,0.0,0.0,56,0.00,,,0.00,VWS V13.01,2013-05-07 15:32:00,
2013-05-07 10:37:00,73.3,55.7,30.02,SW,228,0.0,0.0,54,0.00,,,0.00,VWS V13.01,2013-05-07 15:37:00,
2013-05-07 10:40:00,66.2,53.7,30.02,SW,227,0.0,0.0,64,0.00,,,0.00,VWS V15.00,2013-05-07 15:40:00,
2013-05-07 10:42:00,73.9,55.7,30.02,SW,227,0.0,0.0,53,0.00,,,0.00,VWS V13.01,2013-05-07 15:42:00,
2013-05-07 10:47:00,74.1,55.4,30.01,SW,228,1.0,5.0,52,0.00,,,0.00,VWS V13.01,2013-05-07 15:47:00,
2013-05-07 10:50:00,68.1,55.0,30.02,SW,227,0.0,0.0,63,0.00,,,0.00,VWS V15.00,2013-05-07 15:50:00,
2013-05-07 10:52:00,74.1,54.8,30.01,SW,227,2.0,6.0,51,0.00,,,0.00,VWS V13.01,2013-05-07 15:52:00,
2013-05-07 10:57:00,74.0,54.7,30.01,SW,218,6.0,11.0,51,0.00,,,0.00,VWS V13.01,2013-05-07 15:57:00,
2013-05-07 11:00:00,69.4,55.8,30.02,SW,228,0.0,0.0,62,0.00,,,0.00,VWS V15.00,2013-05-07 16:00:00,
2013-05-07 11:02:00,74.4,55.1,30.01,SW,218,0.0,0.0,51,0.00,,,0.00,VWS V13.01,2013-05-07 16:02:00,
2013-05-07 11:07:00,76.1,56.1,30.01,SW,218,5.0,6.0,50,0.00,,,0.00,VWS V13.01,2013-05-07 16:07:00,
2013-05-07 11:10:00,70.7,55.2,30.02,SW,228,0.0,0.0,58,0.00,,,0.00,VWS V15.00,2013-05-07 16:10:00,
2013-05-07 11:12:00,77.4,55.0,30.01,SW,218,0.0,0.0,46,0.00,,,0.00,VWS V13.01,2013-05-07 16:12:00,
2013-05-07 11:17:00,77.7,54.7,30.00,SW,218,2.0,7.0,45,0.00,,,0.00,VWS V13.01,2013-05-07 16:17:00,
2013-05-07 11:20:00,71.7,55.7,30.02,SW,227,2.0,4.0,57,0.00,,,0.00,VWS V15.00,2013-05-07 16:20:00,
2013-05-07 11:22:00,77.8,55.4,30.00,SW,218,0.0,5.0,46,0.00,,,0.00,VWS V13.01,2013-05-07 16:22:00,
2013-05-07 11:27:00,77.6,54.0,30.00,SSW,203,0.0,10.0,44,0.00,,,0.00,VWS V13.01,2013-05-07 16:27:00,
2013-05-07 11:30:00,72.1,55.6,30.02,SW,228,0.0,6.0,56,0.00,,,0.00,VWS V15.00,2013-05-07 16:30:00,
2013-05-07 11:32:00,77.6,53.4,30.01,SSW,204,0.0,0.0,43,0.00,,,0.00,VWS V13.01,2013-05-07 16:32:00,
2013-05-07 11:37:00,77.6,53.4,30.01,SSW,198,4.0,10.0,43,0.00,,,0.00,VWS V13.01,2013-05-07 16:37:00,
2013-05-07 11:40:00,73.8,55.6,30.02,SW,228,0.0,4.0,53,0.00,,,0.00,VWS V15.00,2013-05-07 16:40:00,
2013-05-07 11:42:00,78.0,54.3,30.01,SSW,198,0.0,2.0,44,0.00,,,0.00,VWS V13.01,2013-05-07 16:42:00,
2013-05-07 11:47:00,78.6,54.3,30.00,SSW,198,4.0,6.0,43,0.00,,,0.00,VWS V13.01,2013-05-07 16:47:00,
2013-05-07 11:50:00,74.2,54.9,30.01,SW,228,5.0,5.0,51,0.00,,,0.00,VWS V15.00,2013-05-07 16:50:00,
2013-05-07 11:52:00,78.1,52.5,30.00,SSW,198,0.0,6.0,41,0.00,,,0.00,VWS V13.01,2013-05-07 16:52:00,
2013-05-07 11:57:00,77.1,53.5,30.00,SSW,198,7.0,9.0,44,0.00,,,0.00,VWS V13.01,2013-05-07 16:57:00,
2013-05-07 12:00:00,74.2,54.9,30.01,SW,218,0.0,11.0,51,0.00,,,0.00,VWS V15.00,2013-05-07 17:00:00,
2013-05-07 12:02:00,77.2,53.6,29.99,SSW,198,0.0,0.0,44,0.00,,,0.00,VWS V13.01,2013-05-07 17:02:00,
2013-05-07 12:07:00,78.6,53.6,29.99,SSW,194,3.0,8.0,42,0.00,,,0.00,VWS V13.01,2013-05-07 17:07:00,
2013-05-07 12:10:00,77.1,55.9,30.01,SW,218,0.0,6.0,48,0.00,,,0.00,VWS V15.00,2013-05-07 17:10:00,
2013-05-07 12:12:00,77.2,51.7,29.99,SSW,194,0.0,0.0,41,0.00,,,0.00,VWS V13.01,2013-05-07 17:12:00,
2013-05-07 12:17:00,78.7,53.0,29.99,SSW,194,0.0,6.0,41,0.00,,,0.00,VWS V13.01,2013-05-07 17:17:00,
2013-05-07 12:20:00,77.8,55.4,30.00,SW,218,0.0,7.0,46,0.00,,,0.00,VWS V15.00,2013-05-07 17:20:00,
2013-05-07 12:22:00,78.7,54.3,29.99,SSW,194,0.0,3.0,43,0.00,,,0.00,VWS V13.01,2013-05-07 17:22:00,
2013-05-07 12:27:00,79.6,54.5,29.99,SSW,194,3.0,7.0,42,0.00,,,0.00,VWS V13.01,2013-05-07 17:27:00,
2013-05-07 12:30:00,77.6,53.4,30.01,SSW,204,0.0,10.0,43,0.00,,,0.00,VWS V15.00,2013-05-07 17:30:00,
2013-05-07 12:32:00,79.8,53.4,29.98,SSW,194,0.0,0.0,40,0.00,,,0.00,VWS V13.01,2013-05-07 17:32:00,
2013-05-07 12:37:00,80.1,55.0,29.98,SSW,194,4.0,9.0,42,0.00,,,0.00,VWS V13.01,2013-05-07 17:37:00,
2013-05-07 12:40:00,77.9,54.3,30.01,SSW,198,0.0,10.0,44,0.00,,,0.00,VWS V15.00,2013-05-07 17:40:00,
2013-05-07 12:42:00,80.2,54.4,29.98,SSW,194,7.0,9.0,41,0.00,,,0.00,VWS V13.01,2013-05-07 17:42:00,
2013-05-07 12:47:00,79.6,53.8,29.97,South,188,7.0,10.0,41,0.00,,,0.00,VWS V13.01,2013-05-07 17:47:00,
2013-05-07 12:50:00,78.4,52.8,30.00,SSW,198,5.0,9.0,41,0.00,,,0.00,VWS V15.00,2013-05-07 17:50:00,
2013-05-07 12:52:00,79.4,53.0,29.97,South,173,0.0,4.0,40,0.00,,,0.00,VWS V13.01,2013-05-07 17:52:00,
2013-05-07 12:57:00,79.0,53.3,29.97,South,172,0.0,11.0,41,0.00,,,0.00,VWS V13.01,2013-05-07 17:57:00,
2013-05-07 13:00:00,77.0,53.4,29.99,SSW,198,0.0,9.0,44,0.00,,,0.00,VWS V15.00,2013-05-07 18:00:00,
2013-05-07 13:02:00,80.1,53.6,29.97,South,172,0.0,0.0,40,0.00,,,0.00,VWS V13.01,2013-05-07 18:02:00,
2013-05-07 13:07:00,82.1,54.0,29.97,South,172,0.0,8.0,38,0.00,,,0.00,VWS V13.01,2013-05-07 18:07:00,
2013-05-07 13:10:00,77.4,51.9,29.99,SSW,194,0.0,8.0,41,0.00,,,0.00,VWS V15.00,2013-05-07 18:10:00,
2013-05-07 13:12:00,82.1,53.3,29.97,South,172,0.0,0.0,37,0.00,,,0.00,VWS V13.01,2013-05-07 18:12:00,
2013-05-07 13:17:00,82.2,54.8,29.97,South,172,0.0,12.0,39,0.00,,,0.00,VWS V13.01,2013-05-07 18:17:00,
2013-05-07 13:20:00,78.5,54.8,29.99,SSW,194,0.0,7.0,44,0.00,,,0.00,VWS V15.00,2013-05-07 18:20:00,
2013-05-07 13:22:00,81.0,53.0,29.97,South,172,2.0,6.0,38,0.00,,,0.00,VWS V13.01,2013-05-07 18:22:00,
2013-05-07 13:27:00,81.1,53.1,29.97,SSE,155,6.0,15.0,38,0.00,,,0.00,VWS V13.01,2013-05-07 18:27:00,
2013-05-07 13:30:00,79.7,53.3,29.98,SSW,194,0.0,7.0,40,0.00,,,0.00,VWS V15.00,2013-05-07 18:30:00,
2013-05-07 13:32:00,81.2,53.9,29.96,South,182,1.0,8.0,39,0.00,,,0.00,VWS V13.01,2013-05-07 18:32:00,
2013-05-07 13:37:00,81.3,53.3,29.96,SSE,160,4.0,11.0,38,0.00,,,0.00,VWS V13.01,2013-05-07 18:37:00,
2013-05-07 13:40:00,80.0,52.1,29.98,SSW,194,6.0,11.0,38,0.00,,,0.00,VWS V15.00,2013-05-07 18:40:00,
2013-05-07 13:42:00,81.8,53.7,29.96,South,171,0.0,0.0,38,0.00,,,0.00,VWS V13.01,2013-05-07 18:42:00,
2013-05-07 13:47:00,82.8,53.9,29.95,SSE,165,4.0,10.0,37,0.00,,,0.00,VWS V13.01,2013-05-07 18:47:00,
2013-05-07 13:50:00,79.5,53.8,29.97,South,173,4.0,13.0,41,0.00,,,0.00,VWS V15.00,2013-05-07 18:50:00,
2013-05-07 13:52:00,82.5,53.6,29.95,SSE,155,12.0,12.0,37,0.00,,,0.00,VWS V13.01,2013-05-07 18:52:00,
2013-05-07 13:57:00,82.8,53.2,29.95,SSE,168,6.0,12.0,36,0.00,,,0.00,VWS V13.01,2013-05-07 18:57:00,
2013-05-07 14:00:00,80.1,53.6,29.97,South,172,0.0,11.0,40,0.00,,,0.00,VWS V15.00,2013-05-07 19:00:00,
2013-05-07 14:02:00,83.2,52.7,29.95,SSE,157,14.0,14.0,35,0.00,,,0.00,VWS V13.01,2013-05-07 19:02:00,
2013-05-07 14:07:00,82.9,54.0,29.95,South,181,8.0,15.0,37,0.00,,,0.00,VWS V13.01,2013-05-07 19:07:00,
2013-05-07 14:10:00,82.7,53.8,29.97,South,172,0.0,8.0,37,0.00,,,0.00,VWS V15.00,2013-05-07 19:10:00,
2013-05-07 14:12:00,83.0,54.1,29.95,South,179,0.0,3.0,37,0.00,,,0.00,VWS V13.01,2013-05-07 19:12:00,
2013-05-07 14:17:00,84.2,52.8,29.94,South,179,0.0,8.0,34,0.00,,,0.00,VWS V13.01,2013-05-07 19:17:00,
2013-05-07 14:20:00,81.4,53.4,29.97,South,172,3.0,12.0,38,0.00,,,0.00,VWS V15.00,2013-05-07 19:20:00,
2013-05-07 14:22:00,84.2,54.4,29.94,SSE,157,4.0,8.0,36,0.00,,,0.00,VWS V13.01,2013-05-07 19:22:00,
2013-05-07 14:27:00,84.1,55.0,29.94,SSE,157,0.0,9.0,37,0.00,,,0.00,VWS V13.01,2013-05-07 19:27:00,
2013-05-07 14:30:00,80.9,53.7,29.96,SSE,167,5.0,15.0,39,0.00,,,0.00,VWS V15.00,2013-05-07 19:30:00,
2013-05-07 14:32:00,83.3,52.8,29.94,South,171,3.0,8.0,35,0.00,,,0.00,VWS V13.01,2013-05-07 19:32:00,
2013-05-07 14:37:00,83.9,54.1,29.94,South,176,2.0,12.0,36,0.00,,,0.00,VWS V13.01,2013-05-07 19:37:00,
2013-05-07 14:40:00,81.9,53.8,29.96,South,171,0.0,13.0,38,0.00,,,0.00,VWS V15.00,2013-05-07 19:40:00,
2013-05-07 14:42:00,83.2,52.7,29.94,South,174,4.0,5.0,35,0.00,,,0.00,VWS V13.01,2013-05-07 19:42:00,
2013-05-07 14:47:00,83.8,53.3,29.93,South,173,4.0,11.0,35,0.00,,,0.00,VWS V13.01,2013-05-07 19:47:00,
2013-05-07 14:50:00,82.4,53.5,29.95,SSE,157,4.0,10.0,37,0.00,,,0.00,VWS V15.00,2013-05-07 19:50:00,
2013-05-07 14:52:00,83.7,53.2,29.93,SSE,167,3.0,3.0,35,0.00,,,0.00,VWS V13.01,2013-05-07 19:52:00,
2013-05-07 14:57:00,84.4,52.2,29.93,South,179,0.0,12.0,33,0.00,,,0.00,VWS V13.01,2013-05-07 19:57:00,
2013-05-07 15:00:00,83.2,53.5,29.95,SSE,153,9.0,12.0,36,0.00,,,0.00,VWS V15.00,2013-05-07 20:00:00,
2013-05-07 15:02:00,84.9,52.6,29.92,SSW,192,3.0,8.0,33,0.00,,,0.00,VWS V13.01,2013-05-07 20:02:00,
2013-05-07 15:07:00,84.6,52.4,29.92,SSW,194,4.0,14.0,33,0.00,,,0.00,VWS V13.01,2013-05-07 20:07:00,
2013-05-07 15:10:00,83.0,54.1,29.95,South,179,0.0,15.0,37,0.00,,,0.00,VWS V15.00,2013-05-07 20:10:00,
2013-05-07 15:12:00,85.1,50.2,29.92,SSW,198,7.0,7.0,30,0.00,,,0.00,VWS V13.01,2013-05-07 20:12:00,
2013-05-07 15:17:00,87.0,51.8,29.92,SSW,205,5.0,8.0,30,0.00,,,0.00,VWS V13.01,2013-05-07 20:17:00,
2013-05-07 15:20:00,84.2,55.1,29.94,SSE,157,8.0,12.0,37,0.00,,,0.00,VWS V15.00,2013-05-07 20:20:00,
2013-05-07 15:22:00,86.7,52.5,29.92,SSW,208,1.0,5.0,31,0.00,,,0.00,VWS V13.01,2013-05-07 20:22:00,
2013-05-07 15:27:00,84.8,51.7,29.92,South,169,0.0,11.0,32,0.00,,,0.00,VWS V13.01,2013-05-07 20:27:00,
2013-05-07 15:30:00,83.3,54.3,29.94,South,173,2.0,13.0,37,0.00,,,0.00,VWS V15.00,2013-05-07 20:30:00,
2013-05-07 15:32:00,84.8,51.7,29.91,South,169,6.0,6.0,32,0.00,,,0.00,VWS V13.01,2013-05-07 20:32:00,
2013-05-07 15:37:00,84.2,51.2,29.91,SSE,168,6.0,7.0,32,0.00,,,0.00,VWS V13.01,2013-05-07 20:37:00,
2013-05-07 15:42:00,84.5,52.3,29.91,SSE,168,0.0,5.0,33,0.00,,,0.00,VWS V13.01,2013-05-07 20:42:00,
2013-05-07 15:47:00,84.3,51.3,29.90,SSE,167,4.0,11.0,32,0.00,,,0.00,VWS V13.01,2013-05-07 20:47:00,
2013-05-07 15:50:00,83.5,53.0,29.93,SSE,167,2.0,11.0,35,0.00,,,0.00,VWS V15.00,2013-05-07 20:50:00,
2013-05-07 15:52:00,84.3,51.3,29.90,SSE,160,4.0,5.0,32,0.00,,,0.00,VWS V13.01,2013-05-07 20:52:00,
2013-05-07 15:57:00,84.7,51.6,29.90,SSE,160,6.0,10.0,32,0.00,,,0.00,VWS V13.01,2013-05-07 20:57:00,
2013-05-07 16:00:00,84.4,53.0,29.92,South,182,8.0,16.0,34,0.00,,,0.00,VWS V15.00,2013-05-07 21:00:00,
2013-05-07 16:02:00,85.1,52.0,29.89,SSE,154,0.0,12.0,32,0.00,,,0.00,VWS V13.01,2013-05-07 21:02:00,
2013-05-07 16:07:00,85.9,52.7,29.89,South,173,4.0,10.0,32,0.00,,,0.00,VWS V13.01,2013-05-07 21:07:00,
2013-05-07 16:10:00,84.9,50.9,29.92,SSW,194,2.0,14.0,31,0.00,,,0.00,VWS V15.00,2013-05-07 21:10:00,
2013-05-07 16:12:00,85.3,52.1,29.89,South,173,4.0,7.0,32,0.00,,,0.00,VWS V13.01,2013-05-07 21:12:00,
2013-05-07 16:17:00,84.9,52.6,29.89,South,173,2.0,9.0,33,0.00,,,0.00,VWS V13.01,2013-05-07 21:17:00,
2013-05-07 16:20:00,86.8,52.6,29.92,SSW,207,2.0,10.0,31,0.00,,,0.00,VWS V15.00,2013-05-07 21:20:00,
2013-05-07 16:22:00,84.8,52.5,29.89,SE,140,2.0,8.0,33,0.00,,,0.00,VWS V13.01,2013-05-07 21:22:00,
2013-05-07 16:27:00,85.5,53.1,29.89,SSE,149,2.0,8.0,33,0.00,,,0.00,VWS V13.01,2013-05-07 21:27:00,
2013-05-07 16:30:00,84.7,51.6,29.91,South,169,2.0,11.0,32,0.00,,,0.00,VWS V15.00,2013-05-07 21:30:00,
2013-05-07 16:32:00,85.6,50.7,29.88,SE,138,3.0,8.0,30,0.00,,,0.00,VWS V13.01,2013-05-07 21:32:00,
2013-05-07 16:37:00,84.8,50.8,29.88,SE,136,2.0,11.0,31,0.00,,,0.00,VWS V13.01,2013-05-07 21:37:00,
2013-05-07 16:40:00,84.4,52.2,29.91,South,169,5.0,9.0,33,0.00,,,0.00,VWS V15.00,2013-05-07 21:40:00,
2013-05-07 16:42:00,85.9,52.7,29.88,SE,138,2.0,5.0,32,0.00,,,0.00,VWS V13.01,2013-05-07 21:42:00,
2013-05-07 16:47:00,85.7,51.6,29.88,South,170,4.0,10.0,31,0.00,,,0.00,VWS V13.01,2013-05-07 21:47:00,
2013-05-07 16:50:00,84.3,51.3,29.90,SSE,161,4.0,11.0,32,0.00,,,0.00,VWS V15.00,2013-05-07 21:50:00,
2013-05-07 16:52:00,84.9,52.6,29.88,South,172,0.0,0.0,33,0.00,,,0.00,VWS V13.01,2013-05-07 21:52:00,
2013-05-07 16:57:00,84.5,51.4,29.88,SSE,168,0.0,7.0,32,0.00,,,0.00,VWS V13.01,2013-05-07 21:57:00,
2013-05-07 17:00:00,85.1,52.0,29.89,SSE,154,0.0,12.0,32,0.00,,,0.00,VWS V15.00,2013-05-07 22:00:00,
2013-05-07 17:02:00,84.1,51.9,29.87,SSE,157,6.0,11.0,33,0.00,,,0.00,VWS V13.01,2013-05-07 22:02:00,
2013-05-07 17:07:00,84.5,52.3,29.87,South,171,1.0,11.0,33,0.00,,,0.00,VWS V13.01,2013-05-07 22:07:00,
2013-05-07 17:10:00,85.5,52.3,29.89,South,174,0.0,10.0,32,0.00,,,0.00,VWS V15.00,2013-05-07 22:10:00,
2013-05-07 17:12:00,84.5,52.3,29.87,SSE,164,2.0,4.0,33,0.00,,,0.00,VWS V13.01,2013-05-07 22:12:00,
2013-05-07 17:17:00,84.3,52.1,29.87,SSE,164,4.0,8.0,33,0.00,,,0.00,VWS V13.01,2013-05-07 22:17:00,
2013-05-07 17:20:00,84.8,51.7,29.89,SE,141,6.0,13.0,32,0.00,,,0.00,VWS V15.00,2013-05-07 22:20:00,
2013-05-07 17:22:00,83.8,50.8,29.87,SSE,159,5.0,8.0,32,0.00,,,0.00,VWS V13.01,2013-05-07 22:22:00,
2013-05-07 17:27:00,84.1,51.1,29.87,SSE,159,2.0,12.0,32,0.00,,,0.00,VWS V13.01,2013-05-07 22:27:00,
2013-05-07 17:30:00,85.8,50.8,29.88,SE,138,7.0,12.0,30,0.00,,,0.00,VWS V15.00,2013-05-07 22:30:00,
2013-05-07 17:32:00,85.1,52.0,29.86,South,171,4.0,6.0,32,0.00,,,0.00,VWS V13.01,2013-05-07 22:32:00,
2013-05-07 17:37:00,85.3,53.0,29.86,SSE,168,0.0,9.0,33,0.00,,,0.00,VWS V13.01,2013-05-07 22:37:00,
2013-05-07 17:40:00,85.7,52.5,29.88,SE,138,3.0,11.0,32,0.00,,,0.00,VWS V15.00,2013-05-07 22:40:00,
2013-05-07 17:42:00,85.5,52.3,29.86,SSE,166,8.0,10.0,32,0.00,,,0.00,VWS V13.01,2013-05-07 22:42:00,
2013-05-07 17:47:00,85.4,53.0,29.86,South,180,1.0,13.0,33,0.00,,,0.00,VWS V13.01,2013-05-07 22:47:00,
2013-05-07 17:50:00,84.8,52.5,29.88,South,172,0.0,10.0,33,0.00,,,0.00,VWS V15.00,2013-05-07 22:50:00,
2013-05-07 17:52:00,84.5,52.3,29.86,SSE,157,1.0,4.0,33,0.00,,,0.00,VWS V13.01,2013-05-07 22:52:00,
2013-05-07 17:57:00,84.5,53.1,29.86,SSE,160,0.0,9.0,34,0.00,,,0.00,VWS V13.01,2013-05-07 22:57:00,
2013-05-07 18:00:00,84.1,51.9,29.87,SSE,168,0.0,7.0,33,0.00,,,0.00,VWS V15.00,2013-05-07 23:00:00,
2013-05-07 18:02:00,85.1,53.6,29.85,SSE,161,0.0,6.0,34,0.00,,,0.00,VWS V13.01,2013-05-07 23:02:00,
2013-05-07 18:07:00,84.7,53.3,29.85,SSE,157,1.0,8.0,34,0.00,,,0.00,VWS V13.01,2013-05-07 23:07:00,
2013-05-07 18:10:00,84.5,52.3,29.87,SSE,164,4.0,11.0,33,0.00,,,0.00,VWS V15.00,2013-05-07 23:10:00,
2013-05-07 18:12:00,84.4,53.0,29.85,SSE,155,5.0,8.0,34,0.00,,,0.00,VWS V13.01,2013-05-07 23:12:00,
2013-05-07 18:17:00,84.2,53.6,29.85,SSE,155,0.0,8.0,35,0.00,,,0.00,VWS V13.01,2013-05-07 23:17:00,
2013-05-07 18:20:00,83.8,50.8,29.87,SSE,159,1.0,10.0,32,0.00,,,0.00,VWS V15.00,2013-05-07 23:20:00,
2013-05-07 18:22:00,84.5,53.1,29.85,SSE,156,9.0,9.0,34,0.00,,,0.00,VWS V13.01,2013-05-07 23:22:00,
2013-05-07 18:27:00,84.4,52.2,29.85,SSE,155,7.0,11.0,33,0.00,,,0.00,VWS V13.01,2013-05-07 23:27:00,
2013-05-07 18:30:00,85.0,51.9,29.86,South,171,5.0,12.0,32,0.00,,,0.00,VWS V15.00,2013-05-07 23:30:00,
2013-05-07 18:32:00,84.2,52.8,29.85,South,180,6.0,11.0,34,0.00,,,0.00,VWS V13.01,2013-05-07 23:32:00,
2013-05-07 18:37:00,84.0,51.0,29.85,SSE,165,1.0,11.0,32,0.00,,,0.00,VWS V13.01,2013-05-07 23:37:00,
2013-05-07 18:40:00,85.6,53.2,29.86,SSE,155,6.0,10.0,33,0.00,,,0.00,VWS V15.00,2013-05-07 23:40:00,
2013-05-07 18:42:00,83.4,51.3,29.85,SSE,165,2.0,8.0,33,0.00,,,0.00,VWS V13.01,2013-05-07 23:42:00,
2013-05-07 18:47:00,82.9,51.7,29.85,SSE,165,0.0,8.0,34,0.00,,,0.00,VWS V13.01,2013-05-07 23:47:00,
2013-05-07 18:50:00,84.6,52.4,29.86,SSE,157,0.0,14.0,33,0.00,,,0.00,VWS V15.00,2013-05-07 23:50:00,
2013-05-07 18:52:00,82.6,50.6,29.85,South,175,1.0,6.0,33,0.00,,,0.00,VWS V13.01,2013-05-07 23:52:00,
2013-05-07 18:57:00,82.5,50.5,29.85,South,171,4.0,8.0,33,0.00,,,0.00,VWS V13.01,2013-05-07 23:57:00,
2013-05-07 19:00:00,85.2,53.7,29.85,SSE,161,6.0,9.0,34,0.00,,,0.00,VWS V15.00,2013-05-08 00:00:00,
2013-05-07 19:02:00,82.4,50.4,29.85,South,175,2.0,3.0,33,0.00,,,0.00,VWS V13.01,2013-05-08 00:02:00,
2013-05-07 19:07:00,82.3,50.3,29.85,South,173,6.0,8.0,33,0.00,,,0.00,VWS V13.01,2013-05-08 00:07:00,
2013-05-07 19:10:00,84.6,53.2,29.85,SSE,155,7.0,11.0,34,0.00,,,0.00,VWS V15.00,2013-05-08 00:10:00,
2013-05-07 19:12:00,82.1,50.2,29.85,South,174,0.0,2.0,33,0.00,,,0.00,VWS V13.01,2013-05-08 00:12:00,
2013-05-07 19:17:00,82.0,50.1,29.86,South,169,1.0,6.0,33,0.00,,,0.00,VWS V13.01,2013-05-08 00:17:00,
2013-05-07 19:20:00,84.5,53.1,29.85,SSE,158,4.0,8.0,34,0.00,,,0.00,VWS V15.00,2013-05-08 00:20:00,
2013-05-07 19:22:00,81.8,49.9,29.86,South,169,0.0,0.0,33,0.00,,,0.00,VWS V13.01,2013-05-08 00:22:00,
2013-05-07 19:27:00,81.7,50.6,29.86,South,169,4.0,6.0,34,0.00,,,0.00,VWS V13.01,2013-05-08 00:27:00,
2013-05-07 19:30:00,84.2,52.8,29.85,South,178,11.0,13.0,34,0.00,,,0.00,VWS V15.00,2013-05-08 00:30:00,
2013-05-07 19:32:00,81.7,50.6,29.86,South,169,0.0,0.0,34,0.00,,,0.00,VWS V13.01,2013-05-08 00:32:00,
2013-05-07 19:37:00,81.5,50.5,29.86,South,169,0.0,0.0,34,0.00,,,0.00,VWS V13.01,2013-05-08 00:37:00,
2013-05-07 19:40:00,83.5,51.4,29.85,SSE,165,7.0,11.0,33,0.00,,,0.00,VWS V15.00,2013-05-08 00:40:00,
2013-05-07 19:42:00,81.3,51.1,29.86,South,169,0.0,0.0,35,0.00,,,0.00,VWS V13.01,2013-05-08 00:42:00,
2013-05-07 19:47:00,81.2,51.0,29.87,South,169,0.0,5.0,35,0.00,,,0.00,VWS V13.01,2013-05-08 00:47:00,
2013-05-07 19:50:00,82.7,50.7,29.85,South,175,1.0,11.0,33,0.00,,,0.00,VWS V15.00,2013-05-08 00:50:00,
2013-05-07 19:52:00,81.1,50.9,29.87,South,169,0.0,0.0,35,0.00,,,0.00,VWS V13.01,2013-05-08 00:52:00,
2013-05-07 19:57:00,81.0,50.8,29.87,South,169,0.0,0.0,35,0.00,,,0.00,VWS V13.01,2013-05-08 00:57:00,
2013-05-07 20:00:00,82.4,51.2,29.85,South,175,0.0,9.0,34,0.00,,,0.00,VWS V15.00,2013-05-08 01:00:00,
2013-05-07 20:02:00,80.9,51.5,29.87,South,169,0.0,4.0,36,0.00,,,0.00,VWS V13.01,2013-05-08 01:02:00,
2013-05-07 20:07:00,80.6,52.0,29.87,South,169,3.0,6.0,37,0.00,,,0.00,VWS V13.01,2013-05-08 01:07:00,
2013-05-07 20:10:00,82.1,50.2,29.85,South,174,2.0,8.0,33,0.00,,,0.00,VWS V15.00,2013-05-08 01:10:00,
2013-05-07 20:12:00,80.4,52.5,29.87,South,169,6.0,6.0,38,0.00,,,0.00,VWS V13.01,2013-05-08 01:12:00,
2013-05-07 20:17:00,80.1,52.9,29.86,SSE,167,7.0,9.0,39,0.00,,,0.00,VWS V13.01,2013-05-08 01:17:00,
2013-05-07 20:20:00,81.9,50.0,29.86,South,169,0.0,11.0,33,0.00,,,0.00,VWS V15.00,2013-05-08 01:20:00,
2013-05-07 20:22:00,79.8,53.4,29.86,SSE,151,6.0,14.0,40,0.00,,,0.00,VWS V13.01,2013-05-08 01:22:00,
2013-05-07 20:27:00,79.5,53.1,29.86,SSE,153,0.0,14.0,40,0.00,,,0.00,VWS V13.01,2013-05-08 01:27:00,
2013-05-07 20:30:00,81.7,50.6,29.86,South,169,0.0,7.0,34,0.00,,,0.00,VWS V15.00,2013-05-08 01:30:00,
2013-05-07 20:32:00,79.3,52.2,29.86,SSE,150,8.0,10.0,39,0.00,,,0.00,VWS V13.01,2013-05-08 01:32:00,
2013-05-07 20:37:00,79.1,52.7,29.86,SSE,151,2.0,13.0,40,0.00,,,0.00,VWS V13.01,2013-05-08 01:37:00,
2013-05-07 20:40:00,81.3,51.1,29.86,South,169,0.0,0.0,35,0.00,,,0.00,VWS V15.00,2013-05-08 01:40:00,
2013-05-07 20:42:00,78.9,52.5,29.86,SSE,150,3.0,8.0,40,0.00,,,0.00,VWS V13.01,2013-05-08 01:42:00,
2013-05-07 20:47:00,78.7,52.4,29.86,SSE,150,3.0,8.0,40,0.00,,,0.00,VWS V13.01,2013-05-08 01:47:00,
2013-05-07 20:50:00,81.1,50.9,29.87,South,169,0.0,5.0,35,0.00,,,0.00,VWS V15.00,2013-05-08 01:50:00,
2013-05-07 20:52:00,78.5,52.2,29.86,SSE,149,3.0,7.0,40,0.00,,,0.00,VWS V13.01,2013-05-08 01:52:00,
2013-05-07 20:57:00,78.3,52.7,29.86,SE,146,3.0,10.0,41,0.00,,,0.00,VWS V13.01,2013-05-08 01:57:00,
2013-05-07 21:00:00,80.9,51.5,29.87,South,169,0.0,4.0,36,0.00,,,0.00,VWS V15.00,2013-05-08 02:00:00,
2013-05-07 21:02:00,78.0,52.4,29.86,SSE,151,5.0,9.0,41,0.00,,,0.00,VWS V13.01,2013-05-08 02:02:00,
2013-05-07 21:07:00,77.8,52.2,29.86,SSE,150,1.0,9.0,41,0.00,,,0.00,VWS V13.01,2013-05-08 02:07:00,
2013-05-07 21:10:00,80.4,52.5,29.87,South,169,1.0,8.0,38,0.00,,,0.00,VWS V15.00,2013-05-08 02:10:00,
2013-05-07 21:12:00,77.6,52.1,29.86,SSE,156,4.0,9.0,41,0.00,,,0.00,VWS V13.01,2013-05-08 02:12:00,
2013-05-07 21:17:00,77.5,52.6,29.87,SSE,156,4.0,12.0,42,0.00,,,0.00,VWS V13.01,2013-05-08 02:17:00,
2013-05-07 21:20:00,79.9,52.8,29.86,SSE,153,5.0,14.0,39,0.00,,,0.00,VWS V15.00,2013-05-08 02:20:00,
2013-05-07 21:22:00,77.4,52.5,29.87,SSE,155,2.0,6.0,42,0.00,,,0.00,VWS V13.01,2013-05-08 02:22:00,
2013-05-07 21:27:00,77.2,53.0,29.87,SSE,155,3.0,9.0,43,0.00,,,0.00,VWS V13.01,2013-05-08 02:27:00,
2013-05-07 21:30:00,79.3,52.2,29.86,SSE,149,3.0,14.0,39,0.00,,,0.00,VWS V15.00,2013-05-08 02:30:00,
2013-05-07 21:32:00,76.9,52.7,29.87,SSE,156,0.0,9.0,43,0.00,,,0.00,VWS V13.01,2013-05-08 02:32:00,
2013-05-07 21:37:00,76.7,53.2,29.87,SSE,158,4.0,9.0,44,0.00,,,0.00,VWS V13.01,2013-05-08 02:37:00,
2013-05-07 21:40:00,78.9,52.5,29.86,SSE,149,8.0,13.0,40,0.00,,,0.00,VWS V15.00,2013-05-08 02:40:00,
2013-05-07 21:42:00,76.4,52.9,29.87,SSE,157,0.0,0.0,44,0.00,,,0.00,VWS V13.01,2013-05-08 02:42:00,
2013-05-07 21:47:00,76.3,52.8,29.87,SSE,153,7.0,9.0,44,0.00,,,0.00,VWS V13.01,2013-05-08 02:47:00,
2013-05-07 21:50:00,78.6,52.3,29.86,SSE,150,6.0,10.0,40,0.00,,,0.00,VWS V15.00,2013-05-08 02:50:00,
2013-05-07 21:52:00,76.3,53.4,29.87,SSE,149,4.0,10.0,45,0.00,,,0.00,VWS V13.01,2013-05-08 02:52:00,
2013-05-07 21:57:00,76.2,53.3,29.87,SSE,151,3.0,10.0,45,0.00,,,0.00,VWS V13.01,2013-05-08 02:57:00,
2013-05-07 22:00:00,78.0,52.4,29.86,SSE,150,4.0,10.0,41,0.00,,,0.00,VWS V15.00,2013-05-08 03:00:00,
2013-05-07 22:02:00,76.0,53.2,29.88,SSE,150,0.0,0.0,45,0.00,,,0.00,VWS V13.01,2013-05-08 03:02:00,
2013-05-07 22:07:00,75.9,53.7,29.88,SSE,153,7.0,11.0,46,0.00,,,0.00,VWS V13.01,2013-05-08 03:07:00,
2013-05-07 22:10:00,77.6,52.1,29.86,SSE,151,3.0,12.0,41,0.00,,,0.00,VWS V15.00,2013-05-08 03:10:00,
2013-05-07 22:12:00,75.8,53.6,29.88,SSE,154,6.0,6.0,46,0.00,,,0.00,VWS V13.01,2013-05-08 03:12:00,
2013-05-07 22:17:00,75.8,53.6,29.89,SSE,153,4.0,9.0,46,0.00,,,0.00,VWS V13.01,2013-05-08 03:17:00,
2013-05-07 22:20:00,77.5,52.6,29.87,SSE,155,2.0,12.0,42,0.00,,,0.00,VWS V15.00,2013-05-08 03:20:00,
2013-05-07 22:22:00,75.7,53.5,29.89,SSE,155,1.0,4.0,46,0.00,,,0.00,VWS V13.01,2013-05-08 03:22:00,
2013-05-07 22:27:00,75.6,53.4,29.89,SSE,156,8.0,9.0,46,0.00,,,0.00,VWS V13.01,2013-05-08 03:27:00,
2013-05-07 22:30:00,77.0,52.8,29.87,SSE,153,7.0,13.0,43,0.00,,,0.00,VWS V15.00,2013-05-08 03:30:00,
2013-05-07 22:32:00,75.5,53.3,29.89,SSE,154,7.0,7.0,46,0.00,,,0.00,VWS V13.01,2013-05-08 03:32:00,
2013-05-07 22:37:00,75.3,53.1,29.89,SSE,154,0.0,7.0,46,0.00,,,0.00,VWS V13.01,2013-05-08 03:37:00,
2013-05-07 22:40:00,76.4,52.9,29.87,SSE,158,0.0,9.0,44,0.00,,,0.00,VWS V15.00,2013-05-08 03:40:00,
2013-05-07 22:42:00,75.2,53.6,29.89,SSE,154,3.0,7.0,47,0.00,,,0.00,VWS V13.01,2013-05-08 03:42:00,
2013-05-07 22:47:00,75.1,53.5,29.89,SSE,153,5.0,10.0,47,0.00,,,0.00,VWS V13.01,2013-05-08 03:47:00,
2013-05-07 22:50:00,76.3,53.4,29.87,SSE,149,5.0,10.0,45,0.00,,,0.00,VWS V15.00,2013-05-08 03:50:00,
2013-05-07 22:52:00,74.9,53.3,29.89,SSE,155,7.0,7.0,47,0.00,,,0.00,VWS V13.01,2013-05-08 03:52:00,
2013-05-07 22:57:00,74.8,53.8,29.89,SSE,155,3.0,11.0,48,0.00,,,0.00,VWS V13.01,2013-05-08 03:57:00,
2013-05-07 23:00:00,76.0,53.2,29.88,SSE,150,0.0,10.0,45,0.00,,,0.00,VWS V15.00,2013-05-08 04:00:00,
2013-05-07 23:01:00,74.6,53.6,29.90,SSE,161,0.0,11.0,48,0.00,,,0.00,VWS V13.01,2013-05-08 04:01:00,
2013-05-07 23:06:00,74.4,53.5,29.90,South,173,5.0,15.0,48,0.00,,,0.00,VWS V13.01,2013-05-08 04:06:00,
2013-05-07 23:10:00,75.8,53.6,29.88,SSE,153,0.0,11.0,46,0.00,,,0.00,VWS V15.00,2013-05-08 04:10:00,
2013-05-07 23:12:00,74.3,53.4,29.90,South,169,0.0,3.0,48,0.00,,,0.00,VWS V13.01,2013-05-08 04:12:00,
2013-05-07 23:16:00,74.1,53.7,29.90,South,176,6.0,11.0,49,0.00,,,0.00,VWS V13.01,2013-05-08 04:16:00,
2013-05-07 23:20:00,75.7,53.5,29.89,SSE,155,0.0,9.0,46,0.00,,,0.00,VWS V15.00,2013-05-08 04:20:00,
2013-05-07 23:21:00,73.9,53.6,29.90,South,175,0.0,8.0,49,0.00,,,0.00,VWS V13.01,2013-05-08 04:21:00,
2013-05-07 23:26:00,73.6,53.8,29.90,South,180,8.0,12.0,50,0.00,,,0.00,VWS V13.01,2013-05-08 04:26:00,
2013-05-07 23:30:00,75.5,53.3,29.89,SSE,154,3.0,10.0,46,0.00,,,0.00,VWS V15.00,2013-05-08 04:30:00,
2013-05-07 23:31:00,73.3,54.1,29.90,South,179,2.0,6.0,51,0.00,,,0.00,VWS V13.01,2013-05-08 04:31:00,
2013-05-07 23:37:00,73.0,54.4,29.90,South,187,1.0,14.0,52,0.00,,,0.00,VWS V13.01,2013-05-08 04:37:00,
2013-05-07 23:40:00,75.3,53.7,29.89,SSE,153,6.0,7.0,47,0.00,,,0.00,VWS V15.00,2013-05-08 04:40:00,
2013-05-07 23:42:00,72.8,54.2,29.90,SSW,192,3.0,10.0,52,0.00,,,0.00,VWS V13.01,2013-05-08 04:42:00,
2013-05-07 23:47:00,72.5,54.4,29.90,South,188,7.0,13.0,53,0.00,,,0.00,VWS V13.01,2013-05-08 04:47:00,
2013-05-07 23:50:00,74.9,53.3,29.89,SSE,155,2.0,11.0,47,0.00,,,0.00,VWS V15.00,2013-05-08 04:50:00,
2013-05-07 23:52:00,72.3,54.2,29.90,South,187,2.0,9.0,53,0.00,,,0.00,VWS V13.01,2013-05-08 04:52:00,
2013-05-07 23:57:00,72.1,54.6,29.90,South,188,5.0,11.0,54,0.00,,,0.00,VWS V13.01,2013-05-08 04:57:00,